Location: Keppel Henge
(44.7900°N, 80.9447°W)
Time: 23:24:48
(UTC-05:00)

AO-73 - Visible Passes

Search period start: 21 January 2018 00:00
Search period end: 31 January 2018 00:00
Orbit: 584 x 664 km, 97.6° (Epoch: 21 January)

Date Brightness Start Highest point End Pass type
(mag) Time Alt. Az. Time Alt. Az. Time Alt. Az.
21 Jan ? 18:26:38 15° NE 18:26:38 15° NE 18:28:30 10° NNE visible
21 Jan ? 20:03:52 27° NNW 20:03:52 27° NNW 20:06:03 10° NNW visible
22 Jan ? 18:45:03 21° NE 18:45:03 21° NE 18:47:43 10° NNE visible
22 Jan ? 20:22:17 25° NW 20:22:17 25° NW 20:24:27 10° NNW visible
23 Jan ? 19:03:28 30° NE 19:03:28 30° NE 19:06:40 10° N visible
23 Jan ? 20:40:42 20° WNW 20:40:42 20° WNW 20:42:41 10° NW visible
24 Jan ? 19:21:52 44° NE 19:21:52 44° NE 19:25:28 10° N visible
24 Jan ? 20:59:05 15° WNW 20:59:05 15° WNW 21:00:38 10° NW visible
25 Jan ? 19:40:14 62° N 19:40:14 62° N 19:44:07 10° N visible
25 Jan ? 21:17:27 11° WNW 21:17:27 11° WNW 21:17:52 10° WNW visible
26 Jan ? 18:21:22 14° ENE 18:22:27 15° ENE 18:24:59 10° NNE visible
26 Jan ? 19:58:36 62° WNW 19:58:36 62° WNW 20:02:40 10° NNW visible
27 Jan ? 18:39:43 20° E 18:40:47 22° ENE 18:44:14 10° NNE visible
27 Jan ? 20:16:56 43° W 20:16:56 43° W 20:21:06 10° NNW visible
28 Jan ? 18:58:02 28° E 18:59:10 31° ENE 19:03:13 10° N visible
28 Jan ? 20:35:16 29° W 20:35:22 29° W 20:39:21 10° NW visible
29 Jan ? 19:16:20 37° ESE 19:17:37 47° ENE 19:22:02 10° N visible
29 Jan ? 20:53:34 19° W 20:54:05 19° W 20:57:21 10° NW visible
30 Jan ? 19:34:37 42° SSE 19:36:06 73° ENE 19:40:42 10° N visible
30 Jan ? 21:11:50 12° WSW 21:12:51 12° W 21:14:47 10° WNW visible
